When you browse on this site, cookies collect data to enhance your experience and personalize the content and advertising you see.
Visit our Privacy Policy to learn more. By continuing to use the site, you agree to this use of cookies and data.
  • In Romania
  • List of Countries
  • For 7 days
  • Water Temperature
  • Satellite Maps
  • Weather Map
  • Weather Widgets
  • user-avatar
    Login

    Hourly Weather Lumivaara

    Today, 17 February, Sunday

    Time Temperature Precipitation Wind Pressure Humidity
    00:00 -2°C° 0 mm 6 mps 744 mmHg 80%
    01:00 -2°C° 0 mm 6 mps 744 mmHg 78%
    02:00 -3°C° 0 mm 7 mps 744 mmHg 75%
    03:00 -3°C° 0 mm 7 mps 744 mmHg 74%
    04:00 -3°C° 0 mm 7 mps 744 mmHg 73%
    05:00 -4°C° 0 mm 8 mps 744 mmHg 72%
    06:00 -4°C° 0 mm 8 mps 744 mmHg 72%
    07:00 -2°C° 0 mm 8 mps 745 mmHg 72%
    08:00 -2°C° 0 mm 8 mps 745 mmHg 74%
    09:00 -2°C° 0 mm 8 mps 746 mmHg 72%
    10:00 -3°C° 0 mm 9 mps 747 mmHg 71%
    11:00 -3°C° 0 mm 9 mps 748 mmHg 69%
    12:00 -4°C° 0 mm 9 mps 749 mmHg 69%
    13:00 -4°C° 0 mm 8 mps 751 mmHg 69%
    14:00 -3°C° 0 mm 7 mps 752 mmHg 68%
    15:00 -4°C° 0 mm 7 mps 753 mmHg 69%
    16:00 -6°C° 0 mm 7 mps 755 mmHg 71%
    17:00 -6°C° 0 mm 6 mps 756 mmHg 72%
    18:00 -6°C° 0 mm 6 mps 757 mmHg 74%
    19:00 -8°C° 0 mm 6 mps 758 mmHg 76%
    20:00 -9°C° 0 mm 6 mps 759 mmHg 78%
    21:00 -8°C° 0 mm 5 mps 760 mmHg 80%
    22:00 -10°C° 0 mm 5 mps 761 mmHg 83%
    23:00 -10°C° 0 mm 5 mps 762 mmHg 85%

    Tomorrow, 18 February, Monday

    Time Temperature Precipitation Wind Pressure Humidity
    00:00 -10°C° 0 mm 4 mps 762 mmHg 86%
    01:00 -11°C° 0 mm 4 mps 763 mmHg 88%
    02:00 -11°C° 0 mm 4 mps 764 mmHg 90%
    03:00 -12°C° 0 mm 3 mps 764 mmHg 91%
    04:00 -13°C° 0 mm 3 mps 764 mmHg 92%
    05:00 -13°C° 0 mm 2 mps 765 mmHg 93%
    06:00 -13°C° 0 mm 2 mps 765 mmHg 92%
    07:00 -11°C° 0 mm 1 mps 765 mmHg 91%
    08:00 -12°C° 0 mm 0 mps 765 mmHg 90%
    09:00 -10°C° 0 mm 1 mps 765 mmHg 87%
    10:00 -8°C° 0 mm 1 mps 765 mmHg 85%
    11:00 -8°C° 0 mm 2 mps 765 mmHg 82%
    12:00 -7°C° 0 mm 2 mps 764 mmHg 81%
    13:00 -7°C° 0 mm 3 mps 763 mmHg 80%
    14:00 -8°C° 0 mm 4 mps 763 mmHg 80%
    15:00 -7°C° 0 mm 5 mps 762 mmHg 78%
    16:00 -7°C° 0 mm 5 mps 761 mmHg 75%
    17:00 -7°C° 0 mm 5 mps 760 mmHg 73%
    18:00 -6°C° 0 mm 6 mps 759 mmHg 76%
    19:00 -6°C° 0 mm 6 mps 758 mmHg 78%
    20:00 -5°C° 0 mm 6 mps 757 mmHg 81%
    21:00 -4°C° 0.1 mm 6 mps 756 mmHg 83%
    22:00 -3°C° 0.1 mm 6 mps 755 mmHg 84%
    23:00 -2°C° 0.1 mm 6 mps 754 mmHg 86%

    Day after tomorrow, 19 February, Tuesday

    Time Temperature Precipitation Wind Pressure Humidity
    00:00 -2°C° 0.2 mm 6 mps 753 mmHg 88%
    01:00 -1°C° 0.2 mm 7 mps 752 mmHg 89%
    02:00 -1°C° 0.2 mm 7 mps 752 mmHg 91%
    03:00 -1°C° 0 mm 7 mps 751 mmHg 91%
    04:00 -1°C° 0 mm 6 mps 751 mmHg 92%
    05:00 -1°C° 0 mm 6 mps 750 mmHg 93%
    06:00 -1°C° 0 mm 6 mps 750 mmHg 93%
    07:00 -1°C° 0 mm 6 mps 749 mmHg 93%
    08:00 0°C° 0 mm 5 mps 749 mmHg 94%
    09:00 0°C° 0 mm 5 mps 749 mmHg 94%
    10:00 +1°C° 0 mm 6 mps 749 mmHg 94%
    11:00 +1°C° 0 mm 6 mps 748 mmHg 94%
    12:00 +1°C° 0.3 mm 5 mps 748 mmHg 94%
    13:00 +1°C° 0.3 mm 5 mps 748 mmHg 94%
    14:00 +1°C° 0.3 mm 5 mps 747 mmHg 94%
    15:00 0°C° 0.5 mm 5 mps 747 mmHg 95%
    16:00 0°C° 0.5 mm 4 mps 746 mmHg 95%
    17:00 0°C° 0.5 mm 4 mps 745 mmHg 96%
    18:00 0°C° 0.6 mm 4 mps 745 mmHg 95%
    19:00 0°C° 0.6 mm 4 mps 744 mmHg 95%
    20:00 0°C° 0.6 mm 4 mps 744 mmHg 95%
    21:00 0°C° 0 mm 4 mps 743 mmHg 95%
    22:00 0°C° 0 mm 4 mps 743 mmHg 95%
    23:00 0°C° 0 mm 4 mps 743 mmHg 95%

    20 February, Wednesday

    Time Temperature Precipitation Wind Pressure Humidity
    00:00 0°C° 0 mm 4 mps 742 mmHg 95%
    01:00 -1°C° 0 mm 4 mps 742 mmHg 95%
    02:00 0°C° 0 mm 3 mps 742 mmHg 96%
    03:00 0°C° 0 mm 3 mps 741 mmHg 95%
    04:00 -1°C° 0 mm 4 mps 741 mmHg 95%
    05:00 -1°C° 0 mm 4 mps 740 mmHg 94%
    06:00 -1°C° 0.1 mm 4 mps 740 mmHg 94%
    07:00 -1°C° 0.1 mm 4 mps 740 mmHg 93%
    08:00 -1°C° 0.1 mm 4 mps 740 mmHg 92%
    09:00 -1°C° 0 mm 4 mps 739 mmHg 92%
    10:00 -1°C° 0 mm 4 mps 739 mmHg 92%
    11:00 0°C° 0 mm 3 mps 739 mmHg 92%
    12:00 0°C° 0.2 mm 3 mps 739 mmHg 92%
    13:00 0°C° 0.2 mm 3 mps 739 mmHg 91%
    14:00 0°C° 0.2 mm 3 mps 739 mmHg 91%
    15:00 0°C° 0.1 mm 3 mps 740 mmHg 89%
    16:00 -2°C° 0.1 mm 4 mps 740 mmHg 88%
    17:00 -2°C° 0.1 mm 4 mps 740 mmHg 86%
    18:00 -2°C° 0.3 mm 4 mps 741 mmHg 88%
    19:00 -2°C° 0.3 mm 4 mps 742 mmHg 91%
    20:00 -2°C° 0.3 mm 4 mps 742 mmHg 93%
    21:00 -4°C° 0.3 mm 6 mps 743 mmHg 91%
    22:00 -6°C° 0.3 mm 7 mps 744 mmHg 88%
    23:00 -7°C° 0.3 mm 8 mps 745 mmHg 86%

    21 February, Thursday

    Time Temperature Precipitation Wind Pressure Humidity
    00:00 -9°C° 0.3 mm 9 mps 747 mmHg 84%
    01:00 -10°C° 0.3 mm 9 mps 748 mmHg 83%
    02:00 -11°C° 0.3 mm 9 mps 749 mmHg 81%
    03:00 -12°C° 0.1 mm 9 mps 751 mmHg 79%
    04:00 -12°C° 0.1 mm 9 mps 752 mmHg 78%
    05:00 -12°C° 0.1 mm 9 mps 754 mmHg 76%
    06:00 -12°C° 0 mm 8 mps 755 mmHg 75%
    07:00 -12°C° 0 mm 8 mps 756 mmHg 75%
    08:00 -12°C° 0 mm 8 mps 758 mmHg 74%
    09:00 -12°C° 0 mm 7 mps 759 mmHg 74%
    10:00 -12°C° 0 mm 7 mps 760 mmHg 75%
    11:00 -13°C° 0 mm 7 mps 761 mmHg 75%
    12:00 -11°C° 0 mm 6 mps 762 mmHg 73%
    13:00 -11°C° 0 mm 6 mps 763 mmHg 72%
    14:00 -11°C° 0 mm 6 mps 763 mmHg 71%
    15:00 -11°C° 0 mm 5 mps 764 mmHg 73%
    16:00 -12°C° 0 mm 5 mps 765 mmHg 75%
    17:00 -11°C° 0 mm 4 mps 766 mmHg 77%
    18:00 -12°C° 0 mm 4 mps 766 mmHg 80%
    19:00 -12°C° 0 mm 4 mps 767 mmHg 83%
    20:00 -13°C° 0 mm 3 mps 768 mmHg 86%
    21:00 -13°C° 0 mm 3 mps 768 mmHg 87%
    22:00 -13°C° 0 mm 3 mps 769 mmHg 87%
    23:00 -14°C° 0 mm 3 mps 769 mmHg 88%

    22 February, Friday

    Time Temperature Precipitation Wind Pressure Humidity
    00:00 -14°C° 0 mm 3 mps 770 mmHg 87%
    01:00 -13°C° 0 mm 2 mps 770 mmHg 86%
    02:00 -13°C° 0 mm 2 mps 771 mmHg 85%
    03:00 -13°C° 0 mm 2 mps 771 mmHg 83%
    04:00 -13°C° 0 mm 2 mps 771 mmHg 82%
    05:00 -14°C° 0 mm 3 mps 771 mmHg 80%
    06:00 -14°C° 0 mm 3 mps 772 mmHg 79%
    07:00 -14°C° 0 mm 3 mps 772 mmHg 78%
    08:00 -14°C° 0 mm 3 mps 773 mmHg 77%
    09:00 -12°C° 0 mm 3 mps 773 mmHg 75%
    10:00 -10°C° 0 mm 3 mps 773 mmHg 73%
    11:00 -10°C° 0 mm 4 mps 773 mmHg 71%
    12:00 -9°C° 0 mm 4 mps 773 mmHg 71%
    13:00 -8°C° 0 mm 3 mps 773 mmHg 71%
    14:00 -7°C° 0 mm 3 mps 774 mmHg 70%
    15:00 -8°C° 0 mm 3 mps 773 mmHg 75%
    16:00 -9°C° 0 mm 3 mps 773 mmHg 79%
    17:00 -9°C° 0 mm 2 mps 773 mmHg 84%
    18:00 -8°C° 0 mm 2 mps 773 mmHg 84%
    19:00 -9°C° 0 mm 3 mps 773 mmHg 85%
    20:00 -9°C° 0 mm 3 mps 772 mmHg 86%
    21:00 -8°C° 0 mm 3 mps 771 mmHg 88%
    22:00 -9°C° 0 mm 4 mps 771 mmHg 89%
    23:00 -8°C° 0 mm 4 mps 770 mmHg 91%
    Show more